Time,TemperatureF,DewpointF,PressureIn,WindDirection,WindDirectionDegrees,WindSpeedMPH,WindSpeedGustMPH,Humidity,HourlyPrecipIn,Conditions,Clouds,dailyrainin,SoftwareType,DateUTC
2013-03-19 00:02:00,28.0,6.0,29.91,North,-999,-999.0,-999.0,40,-99.99,,,-99.99,,2013-03-19 06:02:00,
2013-03-19 00:12:00,27.0,6.0,29.90,North,-999,-999.0,-999.0,39,-99.99,,,-99.99,,2013-03-19 06:12:00,
2013-03-19 00:22:00,27.0,6.0,29.90,North,-999,-999.0,-999.0,39,-99.99,,,-99.99,,2013-03-19 06:22:00,
2013-03-19 00:32:00,27.0,6.0,29.90,North,-999,-999.0,-999.0,39,-99.99,,,-99.99,,2013-03-19 06:32:00,
2013-03-19 00:42:00,27.0,6.0,29.90,North,-999,-999.0,-999.0,39,-99.99,,,-99.99,,2013-03-19 06:42:00,
2013-03-19 00:52:00,27.0,6.0,29.90,North,-999,-999.0,-999.0,40,-99.99,,,-99.99,,2013-03-19 06:52:00,
2013-03-19 01:02:00,27.0,6.0,29.90,North,-999,-999.0,-999.0,40,-99.99,,,-99.99,,2013-03-19 07:02:00,
2013-03-19 01:12:00,27.0,6.0,29.89,North,-999,-999.0,-999.0,40,-99.99,,,-99.99,,2013-03-19 07:12:00,
2013-03-19 01:21:00,27.0,6.0,29.89,North,-999,-999.0,-999.0,40,-99.99,,,-99.99,,2013-03-19 07:21:00,
2013-03-19 01:32:00,27.0,6.0,29.89,North,-999,-999.0,-999.0,40,-99.99,,,-99.99,,2013-03-19 07:32:00,
2013-03-19 01:42:00,27.0,6.0,29.89,North,-999,-999.0,-999.0,39,-99.99,,,-99.99,,2013-03-19 07:42:00,
2013-03-19 01:52:00,27.0,6.0,29.89,North,-999,-999.0,-999.0,39,-99.99,,,-99.99,,2013-03-19 07:52:00,
2013-03-19 02:02:00,27.0,6.0,29.89,North,-999,-999.0,-999.0,39,-99.99,,,-99.99,,2013-03-19 08:02:00,
2013-03-19 02:12:00,27.0,6.0,29.90,North,-999,-999.0,-999.0,41,-99.99,,,-99.99,,2013-03-19 08:12:00,
2013-03-19 02:22:00,27.0,6.0,29.90,North,-999,-999.0,-999.0,41,-99.99,,,-99.99,,2013-03-19 08:22:00,
2013-03-19 02:33:00,27.0,6.0,29.90,North,-999,-999.0,-999.0,41,-99.99,,,-99.99,,2013-03-19 08:33:00,
2013-03-19 02:43:00,27.0,6.0,29.90,North,-999,-999.0,-999.0,41,-99.99,,,-99.99,,2013-03-19 08:43:00,
2013-03-19 02:52:00,27.0,6.0,29.91,North,-999,-999.0,-999.0,41,-99.99,,,-99.99,,2013-03-19 08:52:00,
2013-03-19 03:02:00,27.0,6.0,29.91,North,-999,-999.0,-999.0,41,-99.99,,,-99.99,,2013-03-19 09:02:00,
2013-03-19 03:12:00,27.0,6.0,29.91,North,-999,-999.0,-999.0,41,-99.99,,,-99.99,,2013-03-19 09:12:00,
2013-03-19 03:22:00,26.0,6.0,29.92,North,-999,-999.0,-999.0,42,-99.99,,,-99.99,,2013-03-19 09:22:00,
2013-03-19 03:32:00,26.0,6.0,29.92,North,-999,-999.0,-999.0,42,-99.99,,,-99.99,,2013-03-19 09:32:00,
2013-03-19 03:43:00,26.0,6.0,29.92,North,-999,-999.0,-999.0,42,-99.99,,,-99.99,,2013-03-19 09:43:00,
2013-03-19 03:52:00,25.0,5.0,29.94,North,-999,-999.0,-999.0,42,-99.99,,,-99.99,,2013-03-19 09:52:00,
2013-03-19 04:03:00,25.0,5.0,29.94,North,-999,-999.0,-999.0,42,-99.99,,,-99.99,,2013-03-19 10:03:00,
2013-03-19 04:12:00,25.0,5.0,29.94,North,-999,-999.0,-999.0,42,-99.99,,,-99.99,,2013-03-19 10:12:00,
2013-03-19 04:23:00,25.0,2.0,29.95,North,-999,-999.0,-999.0,36,-99.99,,,-99.99,,2013-03-19 10:23:00,
2013-03-19 04:32:00,25.0,2.0,29.95,North,-999,-999.0,-999.0,36,-99.99,,,-99.99,,2013-03-19 10:32:00,
2013-03-19 04:42:00,25.0,2.0,29.95,North,-999,-999.0,-999.0,36,-99.99,,,-99.99,,2013-03-19 10:42:00,
2013-03-19 04:52:00,24.0,1.0,29.96,North,-999,-999.0,-999.0,36,-99.99,,,-99.99,,2013-03-19 10:52:00,
2013-03-19 05:02:00,24.0,1.0,29.96,North,-999,-999.0,-999.0,36,-99.99,,,-99.99,,2013-03-19 11:02:00,
2013-03-19 05:12:00,22.0,2.0,29.98,North,-999,-999.0,-999.0,40,-99.99,,,-99.99,,2013-03-19 11:12:00,
2013-03-19 05:22:00,22.0,2.0,29.98,North,-999,-999.0,-999.0,40,-99.99,,,-99.99,,2013-03-19 11:22:00,
2013-03-19 05:32:00,22.0,2.0,29.98,North,-999,-999.0,-999.0,40,-99.99,,,-99.99,,2013-03-19 11:32:00,
2013-03-19 05:42:00,22.0,2.0,29.98,North,-999,-999.0,-999.0,40,-99.99,,,-99.99,,2013-03-19 11:42:00,
2013-03-19 05:52:00,20.0,10.0,30.01,North,-999,-999.0,-999.0,66,-99.99,,,-99.99,,2013-03-19 11:52:00,
2013-03-19 06:02:00,20.0,10.0,30.01,North,-999,-999.0,-999.0,66,-99.99,,,-99.99,,2013-03-19 12:02:00,
2013-03-19 06:12:00,18.0,14.0,30.03,North,-999,-999.0,-999.0,81,-99.99,,,-99.99,,2013-03-19 12:12:00,
2013-03-19 06:22:00,18.0,14.0,30.03,North,-999,-999.0,-999.0,81,-99.99,,,-99.99,,2013-03-19 12:22:00,
2013-03-19 06:33:00,18.0,14.0,30.03,North,-999,-999.0,-999.0,81,-99.99,,,-99.99,,2013-03-19 12:33:00,
2013-03-19 06:43:00,18.0,14.0,30.04,North,-999,-999.0,-999.0,83,-99.99,,,-99.99,,2013-03-19 12:43:00,
2013-03-19 06:52:00,18.0,14.0,30.04,North,-999,-999.0,-999.0,83,-99.99,,,-99.99,,2013-03-19 12:52:00,
2013-03-19 07:02:00,18.0,14.0,30.04,North,-999,-999.0,-999.0,83,-99.99,,,-99.99,,2013-03-19 13:02:00,
2013-03-19 07:12:00,18.0,14.0,30.04,North,-999,-999.0,-999.0,83,-99.99,,,-99.99,,2013-03-19 13:12:00,
2013-03-19 07:22:00,16.0,12.0,30.05,North,-999,-999.0,-999.0,86,-99.99,,,-99.99,,2013-03-19 13:22:00,
2013-03-19 07:33:00,16.0,12.0,30.05,North,-999,-999.0,-999.0,86,-99.99,,,-99.99,,2013-03-19 13:33:00,
2013-03-19 07:42:00,15.0,11.0,30.07,North,-999,-999.0,-999.0,83,-99.99,,,-99.99,,2013-03-19 13:42:00,
2013-03-19 07:52:00,15.0,11.0,30.07,North,-999,-999.0,-999.0,83,-99.99,,,-99.99,,2013-03-19 13:52:00,
2013-03-19 08:02:00,15.0,11.0,30.07,North,-999,-999.0,-999.0,83,-99.99,,,-99.99,,2013-03-19 14:02:00,
2013-03-19 08:12:00,18.0,13.0,30.08,North,-999,-999.0,-999.0,79,-99.99,,,-99.99,,2013-03-19 14:12:00,
2013-03-19 08:22:00,18.0,13.0,30.08,North,-999,-999.0,-999.0,79,-99.99,,,-99.99,,2013-03-19 14:22:00,
2013-03-19 08:33:00,18.0,13.0,30.08,North,-999,-999.0,-999.0,79,-99.99,,,-99.99,,2013-03-19 14:33:00,
2013-03-19 08:42:00,20.0,13.0,30.09,North,-999,-999.0,-999.0,74,-99.99,,,-99.99,,2013-03-19 14:42:00,
2013-03-19 08:52:00,20.0,13.0,30.09,North,-999,-999.0,-999.0,74,-99.99,,,-99.99,,2013-03-19 14:52:00,
2013-03-19 09:02:00,20.0,13.0,30.09,North,-999,-999.0,-999.0,74,-99.99,,,-99.99,,2013-03-19 15:02:00,
2013-03-19 09:12:00,23.0,5.0,30.09,North,-999,-999.0,-999.0,46,-99.99,,,-99.99,,2013-03-19 15:12:00,
2013-03-19 09:22:00,23.0,5.0,30.09,North,-999,-999.0,-999.0,46,-99.99,,,-99.99,,2013-03-19 15:22:00,
2013-03-19 09:34:00,23.0,5.0,30.09,North,-999,-999.0,-999.0,46,-99.99,,,-99.99,,2013-03-19 15:34:00,
2013-03-19 09:43:00,26.0,1.0,30.10,North,-999,-999.0,-999.0,33,-99.99,,,-99.99,,2013-03-19 15:43:00,
2013-03-19 09:53:00,26.0,1.0,30.10,North,-999,-999.0,-999.0,33,-99.99,,,-99.99,,2013-03-19 15:53:00,
2013-03-19 10:04:00,26.0,1.0,30.10,North,-999,-999.0,-999.0,33,-99.99,,,-99.99,,2013-03-19 16:04:00,
2013-03-19 10:13:00,26.0,1.0,30.10,North,-999,-999.0,-999.0,33,-99.99,,,-99.99,,2013-03-19 16:13:00,
2013-03-19 10:24:00,28.0,-2.0,30.10,North,-999,-999.0,-999.0,26,-99.99,,,-99.99,,2013-03-19 16:24:00,
2013-03-19 10:34:00,28.0,-2.0,30.10,North,-999,-999.0,-999.0,26,-99.99,,,-99.99,,2013-03-19 16:34:00,
2013-03-19 10:44:00,30.0,-5.0,30.10,North,-999,-999.0,-999.0,21,-99.99,,,-99.99,,2013-03-19 16:44:00,
2013-03-19 10:53:00,30.0,-5.0,30.10,North,-999,-999.0,-999.0,21,-99.99,,,-99.99,,2013-03-19 16:53:00,
2013-03-19 11:03:00,30.0,-5.0,30.10,North,-999,-999.0,-999.0,21,-99.99,,,-99.99,,2013-03-19 17:03:00,
2013-03-19 11:13:00,32.0,-2.0,30.10,North,-999,-999.0,-999.0,22,-99.99,,,-99.99,,2013-03-19 17:13:00,
2013-03-19 11:23:00,32.0,-2.0,30.10,North,-999,-999.0,-999.0,22,-99.99,,,-99.99,,2013-03-19 17:23:00,
2013-03-19 11:34:00,32.0,-2.0,30.10,North,-999,-999.0,-999.0,22,-99.99,,,-99.99,,2013-03-19 17:34:00,
2013-03-19 11:44:00,32.0,-8.0,30.10,North,-999,-999.0,-999.0,16,-99.99,,,-99.99,,2013-03-19 17:44:00,
2013-03-19 11:52:00,32.0,-8.0,30.10,North,-999,-999.0,-999.0,16,-99.99,,,-99.99,,2013-03-19 17:52:00,
2013-03-19 12:03:00,32.0,-8.0,30.10,North,-999,-999.0,-999.0,16,-99.99,,,-99.99,,2013-03-19 18:03:00,
2013-03-19 12:13:00,33.0,-7.0,30.10,North,-999,-999.0,-999.0,16,-99.99,,,-99.99,,2013-03-19 18:13:00,
2013-03-19 12:23:00,33.0,-7.0,30.10,North,-999,-999.0,-999.0,16,-99.99,,,-99.99,,2013-03-19 18:23:00,
2013-03-19 12:34:00,33.0,-7.0,30.10,North,-999,-999.0,-999.0,16,-99.99,,,-99.99,,2013-03-19 18:34:00,
2013-03-19 12:43:00,33.0,-7.0,30.10,North,-999,-999.0,-999.0,17,-99.99,,,-99.99,,2013-03-19 18:43:00,
2013-03-19 12:53:00,33.0,-7.0,30.10,North,-999,-999.0,-999.0,17,-99.99,,,-99.99,,2013-03-19 18:53:00,
2013-03-19 13:02:00,33.0,-7.0,30.10,North,-999,-999.0,-999.0,17,-99.99,,,-99.99,,2013-03-19 19:02:00,
2013-03-19 13:12:00,35.0,-9.0,30.11,North,-999,-999.0,-999.0,14,-99.99,,,-99.99,,2013-03-19 19:12:00,
2013-03-19 13:22:00,35.0,-9.0,30.11,North,-999,-999.0,-999.0,14,-99.99,,,-99.99,,2013-03-19 19:22:00,
2013-03-19 13:32:00,35.0,-9.0,30.11,North,-999,-999.0,-999.0,14,-99.99,,,-99.99,,2013-03-19 19:32:00,
2013-03-19 13:42:00,36.0,-10.0,30.10,North,-999,-999.0,-999.0,13,-99.99,,,-99.99,,2013-03-19 19:42:00,
2013-03-19 13:52:00,36.0,-10.0,30.10,North,-999,-999.0,-999.0,13,-99.99,,,-99.99,,2013-03-19 19:52:00,
2013-03-19 14:03:00,36.0,-10.0,30.10,North,-999,-999.0,-999.0,13,-99.99,,,-99.99,,2013-03-19 20:03:00,
2013-03-19 14:12:00,36.0,-11.0,30.10,North,-999,-999.0,-999.0,12,-99.99,,,-99.99,,2013-03-19 20:12:00,
2013-03-19 14:22:00,36.0,-11.0,30.10,North,-999,-999.0,-999.0,12,-99.99,,,-99.99,,2013-03-19 20:22:00,
2013-03-19 14:32:00,36.0,-11.0,30.10,North,-999,-999.0,-999.0,12,-99.99,,,-99.99,,2013-03-19 20:32:00,
2013-03-19 14:42:00,37.0,-6.0,30.10,North,-999,-999.0,-999.0,15,-99.99,,,-99.99,,2013-03-19 20:42:00,
2013-03-19 14:52:00,37.0,-6.0,30.10,North,-999,-999.0,-999.0,15,-99.99,,,-99.99,,2013-03-19 20:52:00,
2013-03-19 15:02:00,37.0,-6.0,30.10,North,-999,-999.0,-999.0,15,-99.99,,,-99.99,,2013-03-19 21:02:00,
2013-03-19 15:12:00,37.0,-9.0,30.10,North,-999,-999.0,-999.0,13,-99.99,,,-99.99,,2013-03-19 21:12:00,
2013-03-19 15:22:00,37.0,-9.0,30.10,North,-999,-999.0,-999.0,13,-99.99,,,-99.99,,2013-03-19 21:22:00,
2013-03-19 15:34:00,37.0,-9.0,30.10,North,-999,-999.0,-999.0,13,-99.99,,,-99.99,,2013-03-19 21:34:00,
2013-03-19 15:43:00,37.0,-9.0,30.10,North,-999,-999.0,-999.0,13,-99.99,,,-99.99,,2013-03-19 21:43:00,
2013-03-19 15:52:00,37.0,-7.0,30.10,North,-999,-999.0,-999.0,14,-99.99,,,-99.99,,2013-03-19 21:52:00,
2013-03-19 16:03:00,37.0,-7.0,30.10,North,-999,-999.0,-999.0,14,-99.99,,,-99.99,,2013-03-19 22:03:00,
2013-03-19 16:12:00,38.0,-9.0,30.12,North,-999,-999.0,-999.0,12,-99.99,,,-99.99,,2013-03-19 22:12:00,
2013-03-19 16:23:00,38.0,-9.0,30.12,North,-999,-999.0,-999.0,12,-99.99,,,-99.99,,2013-03-19 22:23:00,
2013-03-19 16:33:00,38.0,-9.0,30.12,North,-999,-999.0,-999.0,12,-99.99,,,-99.99,,2013-03-19 22:33:00,
2013-03-19 16:43:00,39.0,-8.0,30.12,North,-999,-999.0,-999.0,12,-99.99,,,-99.99,,2013-03-19 22:43:00,
2013-03-19 16:52:00,39.0,-8.0,30.12,North,-999,-999.0,-999.0,12,-99.99,,,-99.99,,2013-03-19 22:52:00,
2013-03-19 17:02:00,39.0,-8.0,30.12,North,-999,-999.0,-999.0,12,-99.99,,,-99.99,,2013-03-19 23:02:00,
2013-03-19 17:12:00,38.0,-10.0,30.13,North,-999,-999.0,-999.0,12,-99.99,,,-99.99,,2013-03-19 23:12:00,
2013-03-19 17:22:00,38.0,-10.0,30.13,North,-999,-999.0,-999.0,12,-99.99,,,-99.99,,2013-03-19 23:22:00,
2013-03-19 17:30:00,39.0,-9.0,30.14,North,-999,-999.0,-999.0,12,-99.99,,,-99.99,,2013-03-19 23:30:00,
2013-03-19 17:32:00,38.0,-10.0,30.13,North,-999,-999.0,-999.0,12,-99.99,,,-99.99,,2013-03-19 23:32:00,
2013-03-19 17:42:00,39.0,-9.0,30.14,North,-999,-999.0,-999.0,12,-99.99,,,-99.99,,2013-03-19 23:42:00,
2013-03-19 17:52:00,39.0,-9.0,30.14,North,-999,-999.0,-999.0,12,-99.99,,,-99.99,,2013-03-19 23:52:00,
2013-03-19 18:03:00,39.0,-9.0,30.14,North,-999,-999.0,-999.0,12,-99.99,,,-99.99,,2013-03-20 00:03:00,
2013-03-19 18:13:00,39.0,-9.0,30.14,North,-999,-999.0,-999.0,12,-99.99,,,-99.99,,2013-03-20 00:13:00,
2013-03-19 18:22:00,39.0,-9.0,30.14,North,-999,-999.0,-999.0,12,-99.99,,,-99.99,,2013-03-20 00:22:00,
2013-03-19 18:43:00,36.0,-10.0,30.16,North,-999,-999.0,-999.0,12,-99.99,,,-99.99,,2013-03-20 00:43:00,
2013-03-19 18:52:00,36.0,-10.0,30.16,North,-999,-999.0,-999.0,12,-99.99,,,-99.99,,2013-03-20 00:52:00,
2013-03-19 19:03:00,36.0,-10.0,30.16,North,-999,-999.0,-999.0,12,-99.99,,,-99.99,,2013-03-20 01:03:00,
2013-03-19 19:12:00,33.0,-4.0,30.17,North,-999,-999.0,-999.0,19,-99.99,,,-99.99,,2013-03-20 01:12:00,
2013-03-19 19:22:00,33.0,-4.0,30.17,North,-999,-999.0,-999.0,19,-99.99,,,-99.99,,2013-03-20 01:22:00,
2013-03-19 19:32:00,33.0,-4.0,30.17,North,-999,-999.0,-999.0,19,-99.99,,,-99.99,,2013-03-20 01:32:00,
2013-03-19 19:43:00,29.0,-3.0,30.18,North,-999,-999.0,-999.0,23,-99.99,,,-99.99,,2013-03-20 01:43:00,
2013-03-19 19:52:00,29.0,-3.0,30.18,North,-999,-999.0,-999.0,23,-99.99,,,-99.99,,2013-03-20 01:52:00,
2013-03-19 20:02:00,29.0,-3.0,30.18,North,-999,-999.0,-999.0,23,-99.99,,,-99.99,,2013-03-20 02:02:00,
2013-03-19 20:12:00,29.0,-3.0,30.19,North,-999,-999.0,-999.0,24,-99.99,,,-99.99,,2013-03-20 02:12:00,
2013-03-19 20:22:00,29.0,-3.0,30.19,North,-999,-999.0,-999.0,24,-99.99,,,-99.99,,2013-03-20 02:22:00,
2013-03-19 20:32:00,29.0,-3.0,30.19,North,-999,-999.0,-999.0,24,-99.99,,,-99.99,,2013-03-20 02:32:00,
2013-03-19 20:42:00,29.0,-3.0,30.19,North,-999,-999.0,-999.0,24,-99.99,,,-99.99,,2013-03-20 02:42:00,
2013-03-19 20:52:00,27.0,0.0,30.20,North,-999,-999.0,-999.0,30,-99.99,,,-99.99,,2013-03-20 02:52:00,
2013-03-19 21:02:00,27.0,0.0,30.20,North,-999,-999.0,-999.0,30,-99.99,,,-99.99,,2013-03-20 03:02:00,
2013-03-19 21:12:00,26.0,3.0,30.21,North,-999,-999.0,-999.0,37,-99.99,,,-99.99,,2013-03-20 03:12:00,
2013-03-19 21:22:00,26.0,3.0,30.21,North,-999,-999.0,-999.0,37,-99.99,,,-99.99,,2013-03-20 03:22:00,
2013-03-19 21:34:00,26.0,3.0,30.21,North,-999,-999.0,-999.0,37,-99.99,,,-99.99,,2013-03-20 03:34:00,
2013-03-19 21:42:00,25.0,4.0,30.23,North,-999,-999.0,-999.0,40,-99.99,,,-99.99,,2013-03-20 03:42:00,
2013-03-19 21:53:00,25.0,4.0,30.23,North,-999,-999.0,-999.0,40,-99.99,,,-99.99,,2013-03-20 03:53:00,
2013-03-19 22:03:00,25.0,4.0,30.23,North,-999,-999.0,-999.0,40,-99.99,,,-99.99,,2013-03-20 04:03:00,
2013-03-19 22:12:00,26.0,2.0,30.23,North,-999,-999.0,-999.0,36,-99.99,,,-99.99,,2013-03-20 04:12:00,
2013-03-19 22:22:00,26.0,2.0,30.23,North,-999,-999.0,-999.0,36,-99.99,,,-99.99,,2013-03-20 04:22:00,
2013-03-19 22:32:00,26.0,2.0,30.23,North,-999,-999.0,-999.0,36,-99.99,,,-99.99,,2013-03-20 04:32:00,
2013-03-19 22:43:00,22.0,5.0,30.23,North,-999,-999.0,-999.0,48,-99.99,,,-99.99,,2013-03-20 04:43:00,
2013-03-19 22:52:00,22.0,5.0,30.23,North,-999,-999.0,-999.0,48,-99.99,,,-99.99,,2013-03-20 04:52:00,
2013-03-19 23:02:00,22.0,5.0,30.23,North,-999,-999.0,-999.0,48,-99.99,,,-99.99,,2013-03-20 05:02:00,
2013-03-19 23:12:00,20.0,7.0,30.24,North,-999,-999.0,-999.0,56,-99.99,,,-99.99,,2013-03-20 05:12:00,
2013-03-19 23:22:00,20.0,7.0,30.24,North,-999,-999.0,-999.0,56,-99.99,,,-99.99,,2013-03-20 05:22:00,
2013-03-19 23:32:00,20.0,7.0,30.24,North,-999,-999.0,-999.0,56,-99.99,,,-99.99,,2013-03-20 05:32:00,
2013-03-19 23:42:00,20.0,7.0,30.24,North,-999,-999.0,-999.0,56,-99.99,,,-99.99,,2013-03-20 05:42:00,
2013-03-19 23:52:00,23.0,5.0,30.23,North,-999,-999.0,-999.0,45,-99.99,,,-99.99,,2013-03-20 05:52:00,